Location: Newark
(39.0622°N, 106.5590°E)
Time: 11:20:13
(UTC+00:00)

Courier 1B - Pass Details

Date: 31 January 2020
Orbit: 962 x 1209 km, 28.3° (Epoch: 25 February)

Event Time Altitude Azimuth Distance (km) Brightness Sun altitude
Rises 19:36:29 0° 255° (WSW) 3,746 - -51.0°
Reaches altitude 10° 19:39:22 10° 246° (WSW) 2,829 - -50.5°
Maximum altitude 19:45:28 34° 184° (S) 1,702 - -49.4°
Drops below altitude 10° 19:51:54 10° 123° (ESE) 2,992 - -48.2°
Exits shadow 19:51:55 10° 123° (ESE) 2,996 10.3 -48.2°
Sets 19:55:02 0° 115° (ESE) 3,990 11.1 -47.7°
